This is the latest recevied weather packets stored in our database for station/object XE2RCS-1. If no packets are shown the sender has not sent any weather packets the latest 10 day(s).
| Time | Temp. | Humidity | Pressure | Rain* | Wind** | Luminosity | Snow |
|---|---|---|---|---|---|---|---|
| 1777606248 | 20.56° C | 84% | 1007 hPa | 0 mm | - | - | - |
| 1777605647 | 21.11° C | 84% | 1007 hPa | 0 mm | - | - | - |
| 1777605047 | 21.11° C | 84% | 1007 hPa | 0 mm | - | - | - |
| 1777604446 | 21.11° C | 75% | 1007 hPa | 0 mm | - | - | - |
| 1777603846 | 21.67° C | 83% | 1007 hPa | 0 mm | - | - | - |
| 1777603245 | 21.11° C | 83% | 1007 hPa | 0 mm | - | - | - |
| 1777602644 | 21.67° C | 83% | 1006 hPa | 0 mm | - | - | - |
| 1777602044 | 22.22° C | 83% | 1006 hPa | 0 mm | - | - | - |
| 1777601443 | 21.67° C | 79% | 1006 hPa | 0 mm | - | - | - |
| 1777600843 | 22.22° C | 72% | 1006 hPa | 0 mm | - | - | - |
| 1777600242 | 22.22° C | 72% | 1006 hPa | 0 mm | - | - | - |
| 1777599641 | 22.78° C | 78% | 1006 hPa | 0 mm | - | - | - |
| 1777599041 | 23.33° C | 71% | 1006 hPa | 0 mm | - | - | - |
| 1777598440 | 24.44° C | 78% | 1006 hPa | 0 mm | - | - | - |
| 1777597839 | 24.44° C | 74% | 1006 hPa | 0 mm | - | - | - |
| 1777597239 | 24.44° C | 65% | 1006 hPa | 0 mm | - | - | - |
| 1777596638 | 25° C | 64% | 1006 hPa | 0 mm | - | - | - |
| 1777596038 | 25.56° C | 72% | 1006 hPa | 0 mm | - | - | - |
| 1777595437 | 25.56° C | 60% | 1005 hPa | 0 mm | - | - | - |
| 1777594836 | 25.56° C | 60% | 1005 hPa | 0 mm | - | - | - |
| 1777594238 | 25.56° C | 60% | 1005 hPa | 0 mm | - | - | - |
| 1777593635 | 25.56° C | 62% | 1005 hPa | 0 mm | - | - | - |
| 1777593035 | 25.56° C | 61% | 1005 hPa | 0 mm | - | - | - |
| 1777592434 | 25.56° C | 58% | 1005 hPa | 0 mm | - | - | - |
| 1777591833 | 25.56° C | 57% | 1005 hPa | 0 mm | - | - | - |
* Rain latest hour (hover to see other rain measurements)
** Current wind speed in m/s (hover to see current wind gust speed)